| time (UTC) | temp C | wind direction | speed KPH | gust KPH | rain 1hr cm | rain 24hr cm | rain mn cm | humidity % | barometer mb |
| 20260507201853 | 12 | 0.0 | 0.0 | 0.00 | 0.00 | 0.00 | 59 | 1016.5 | |
| 20260507195852 | 12 | 0.0 | 0.0 | 0.00 | 0.00 | 0.00 | 59 | 1016.2 | |
| 20260507193850 | 12 | 0.0 | 0.0 | 0.00 | 0.00 | 0.00 | 58 | 1016.0 | |
| 20260507191849 | 12 | 0.0 | 0.0 | 0.00 | 0.00 | 0.00 | 56 | 1015.8 | |
| 20260507185847 | 13 | 0.0 | 0.0 | 0.00 | 0.00 | 0.00 | 53 | 1015.4 | |
| 20260507183846 | 13 | 0.0 | 0.0 | 0.00 | 0.00 | 0.00 | 53 | 1015.1 | |
| 20260507181845 | 15 | 0.0 | 0.0 | 0.00 | 0.00 | 0.00 | 49 | 1014.7 | |
| 20260507175843 | 17 | 0.0 | 0.0 | 0.00 | 0.00 | 0.00 | 40 | 1014.4 | |
| 20260507173842 | 20 | 0.0 | 0.0 | 0.00 | 0.00 | 0.00 | 36 | 1014.2 | |
| 20260507171841 | 21 | 0.0 | 0.0 | 0.00 | 0.00 | 0.00 | 33 | 1014.0 | |
| 20260507165839 | 22 | 0.0 | 0.0 | 0.00 | 0.00 | 0.00 | 31 | 1013.8 | |
| 20260507163838 | 23 | 0.0 | 0.0 | 0.00 | 0.00 | 0.00 | 26 | 1013.9 | |
| 20260507161837 | 24 | 0.0 | 0.0 | 0.00 | 0.00 | 0.00 | 25 | 1013.9 | |
| 20260507155836 | 24 | 0.0 | 0.0 | 0.00 | 0.00 | 0.00 | 28 | 1013.7 | |
| 20260507153834 | 18 | 0.0 | 0.0 | 0.00 | 0.00 | 0.00 | 38 | 1014.0 | |
| 20260507151833 | 23 | 0.0 | 0.0 | 0.00 | 0.00 | 0.00 | 29 | 1013.9 | |
| 20260507145832 | 23 | 0.0 | 0.0 | 0.00 | 0.00 | 0.00 | 26 | 1013.8 | |
| 20260507143830 | 26 | 0.0 | 0.0 | 0.00 | 0.00 | 0.00 | 22 | 1013.9 | |
| 20260507141829 | 21 | 0.0 | 0.0 | 0.00 | 0.00 | 0.00 | 33 | 1014.1 | |
| 20260507135828 | 20 | 0.0 | 0.0 | 0.00 | 0.00 | 0.00 | 35 | 1014.2 | |
| 20260507133826 | 21 | 0.0 | 0.0 | 0.00 | 0.00 | 0.00 | 33 | 1014.3 | |
| 20260507132317 | 20 | 0.0 | 0.0 | 0.00 | 0.00 | 0.00 | 39 | 1014.5 | |
| 20260507130316 | 20 | 0.0 | 0.0 | 0.00 | 0.00 | 0.00 | 39 | 1014.7 | |
| 20260507124318 | 18 | 0.0 | 0.0 | 0.00 | 0.00 | 0.00 | 42 | 1014.8 | |
| 20260507122313 | 18 | 0.0 | 0.0 | 0.00 | 0.00 | 0.00 | 44 | 1015.0 | |
| 20260507120312 | 17 | 0.0 | 0.0 | 0.00 | 0.00 | 0.00 | 47 | 1015.0 | |
| 20260507114310 | 17 | 0.0 | 0.0 | 0.00 | 0.00 | 0.00 | 46 | 1015.2 | |
| 20260507112309 | 16 | 0.0 | 0.0 | 0.00 | 0.00 | 0.00 | 48 | 1015.2 | |
| 20260507110308 | 16 | 0.0 | 0.0 | 0.00 | 0.00 | 0.00 | 50 | 1015.4 | |
| 20260507104306 | 15 | 0.0 | 0.0 | 0.00 | 0.00 | 0.00 | 50 | 1015.6 | |
| 20260507102307 | 15 | 0.0 | 0.0 | 0.00 | 0.00 | 0.00 | 57 | 1015.8 | |
| 20260507100304 | 13 | 0.0 | 0.0 | 0.00 | 0.00 | 0.00 | 61 | 1015.9 | |
| 20260507094302 | 13 | 0.0 | 0.0 | 0.00 | 0.00 | 0.00 | 69 | 1016.0 | |
| 20260507092301 | 12 | 0.0 | 0.0 | 0.00 | 0.00 | 0.00 | 66 | 1016.2 | |
| 20260507090302 | 11 | 0.0 | 0.0 | 0.00 | 0.00 | 0.00 | 73 | 1016.3 | |
| 20260507084258 | 10 | 0.0 | 0.0 | 0.00 | 0.00 | 0.00 | 75 | 1016.3 | |
| 20260507082257 | 10 | 0.0 | 0.0 | 0.00 | 0.00 | 0.00 | 77 | 1016.4 | |
| 20260507080255 | 9 | 0.0 | 0.0 | 0.00 | 0.00 | 0.00 | 82 | 1016.2 | |
| 20260507074254 | 8 | 0.0 | 0.0 | 0.00 | 0.00 | 0.00 | 83 | 1016.4 | |
| 20260507072253 | 8 | 0.0 | 0.0 | 0.00 | 0.00 | 0.00 | 85 | 1016.3 | |
| 20260507070251 | 8 | 0.0 | 0.0 | 0.00 | 0.00 | 0.00 | 84 | 1016.2 | |
| 20260507064250 | 7 | 0.0 | 0.0 | 0.00 | 0.00 | 0.00 | 84 | 1016.3 | |
| 20260507062249 | 7 | 0.0 | 0.0 | 0.00 | 0.00 | 0.00 | 84 | 1016.5 | |
| 20260507060247 | 6 | 0.0 | 0.0 | 0.00 | 0.00 | 0.00 | 84 | 1016.4 | |
| 20260507054246 | 6 | 0.0 | 0.0 | 0.00 | 0.00 | 0.00 | 84 | 1016.2 | |
| 20260507052244 | 6 | 0.0 | 0.0 | 0.00 | 0.00 | 0.00 | 85 | 1016.0 | |
| 20260507050243 | 6 | 0.0 | 0.0 | 0.00 | 0.00 | 0.00 | 85 | 1015.7 | |
| 20260507044242 | 6 | 0.0 | 0.0 | 0.00 | 0.00 | 0.00 | 86 | 1015.7 | |
| 20260507042241 | 6 | 0.0 | 0.0 | 0.00 | 0.00 | 0.00 | 85 | 1015.7 | |
| 20260507040239 | 6 | 0.0 | 0.0 | 0.00 | 0.00 | 0.00 | 85 | 1015.6 | |
| 20260507034238 | 6 | 0.0 | 0.0 | 0.00 | 0.00 | 0.00 | 84 | 1015.7 | |
| 20260507032236 | 6 | 0.0 | 0.0 | 0.00 | 0.00 | 0.00 | 84 | 1015.7 | |
| 20260507030235 | 7 | 0.0 | 0.0 | 0.00 | 0.00 | 0.00 | 83 | 1015.5 | |
| 20260507024234 | 6 | 0.0 | 0.0 | 0.00 | 0.00 | 0.00 | 84 | 1015.7 | |
| 20260507022232 | 6 | 0.0 | 0.0 | 0.00 | 0.00 | 0.00 | 85 | 1015.5 | |
| 20260507020231 | 7 | 0.0 | 0.0 | 0.00 | 0.00 | 0.00 | 83 | 1015.1 | |
| 20260507014230 | 6 | 0.0 | 0.0 | 0.00 | 0.00 | 0.00 | 83 | 1015.6 | |
| 20260507012228 | 7 | 0.0 | 0.0 | 0.00 | 0.00 | 0.00 | 82 | 1015.2 | |
| 20260507010227 | 7 | 0.0 | 0.0 | 0.00 | 0.00 | 0.00 | 83 | 1015.5 | |
| 20260507004226 | 7 | 0.0 | 0.0 | 0.00 | 0.00 | 0.00 | 83 | 1015.6 | |
| 20260507002224 | 7 | 0.0 | 0.0 | 0.00 | 0.00 | 0.00 | 85 | 1015.8 | |
| 20260507000223 | 7 | 0.0 | 0.0 | 0.00 | 0.00 | 0.00 | 85 | 1015.8 | |
| 20260506234221 | 6 | 0.0 | 0.0 | 0.00 | 0.00 | 0.00 | 85 | 1016.4 | |
| 20260506232220 | 6 | 0.0 | 0.0 | 0.00 | 0.00 | 0.00 | 85 | 1016.0 | |
| 20260506230219 | 7 | 0.0 | 0.0 | 0.00 | 0.00 | 0.00 | 87 | 1015.6 | |
| 20260506224217 | 6 | 0.0 | 0.0 | 0.00 | 0.00 | 0.00 | 86 | 1015.4 | |
| 20260506222216 | 7 | 0.0 | 0.0 | 0.00 | 0.00 | 0.00 | 84 | 1015.2 | |
| 20260506220214 | 6 | 0.0 | 0.0 | 0.00 | 0.00 | 0.00 | 85 | 1014.9 | |
| 20260506214213 | 7 | 0.0 | 0.0 | 0.00 | 0.00 | 0.00 | 84 | 1014.9 | |
| 20260506212212 | 7 | 0.0 | 0.0 | 0.00 | 0.00 | 0.00 | 83 | 1014.9 | |
| 20260506210211 | 7 | 0.0 | 0.0 | 0.00 | 0.00 | 0.00 | 83 | 1014.9 | |
| 20260506204209 | 6 | 0.0 | 0.0 | 0.00 | 0.00 | 0.00 | 88 | 1015.0 |